| time (UTC) | temp F | wind direction | speed MPH | gust MPH | rain 1hr in | rain 24hr in | rain mn in | humidity % | barometer mb |
| 20260904143016 | 55 | 0.0 | 2.0 | 0.01 | 0.75 | 0.38 | 96 | 1012.9 | |
| 20260904141517 | 55 | 0.0 | 1.0 | 0.01 | 0.75 | 0.38 | 96 | 1012.7 | |
| 20260904140017 | 55 | 0.0 | 1.0 | 0.00 | 0.74 | 0.37 | 96 | 1012.6 | |
| 20260904134516 | 55 | 0.0 | 0.0 | 0.01 | 0.74 | 0.37 | 96 | 1012.4 | |
| 20260904133016 | 55 | 0.0 | 1.0 | 0.01 | 0.74 | 0.37 | 96 | 1012.4 | |
| 20260904131516 | 55 | 0.0 | 0.0 | 0.01 | 0.74 | 0.37 | 96 | 1012.3 | |
| 20260904130036 | 55 | 0.0 | 2.0 | 0.01 | 0.74 | 0.37 | 96 | 1012.2 | |
| 20260904124516 | 55 | 0.0 | 0.0 | 0.00 | 0.73 | 0.36 | 96 | 1011.9 | |
| 20260904123016 | 54 | 0.0 | 0.0 | 0.00 | 0.73 | 0.36 | 96 | 1011.9 | |
| 20260904121516 | 54 | 0.0 | 1.0 | 0.01 | 0.73 | 0.36 | 96 | 1011.8 | |
| 20260904120016 | 54 | 0.0 | 0.0 | 0.02 | 0.73 | 0.36 | 96 | 1011.8 | |
| 20260904114516 | 55 | 0.0 | 0.0 | 0.03 | 0.73 | 0.36 | 96 | 1011.6 | |
| 20260904113016 | 55 | 0.0 | 1.0 | 0.03 | 0.73 | 0.36 | 95 | 1011.7 | |
| 20260904111556 | 56 | 0.0 | 5.0 | 0.04 | 0.72 | 0.35 | 96 | 1011.9 | |
| 20260904110016 | 56 | 0.0 | 1.0 | 0.04 | 0.71 | 0.34 | 96 | 1011.6 | |
| 20260904104516 | 56 | 0.0 | 0.0 | 0.06 | 0.70 | 0.33 | 96 | 1011.6 | |
| 20260904103036 | 56 | 0.0 | 2.0 | 0.09 | 0.70 | 0.33 | 96 | 1011.6 | |
| 20260904101536 | 56 | 0.0 | 1.0 | 0.10 | 0.68 | 0.32 | 96 | 1011.6 | |
| 20260904100016 | 57 | 0.0 | 3.0 | 0.14 | 0.67 | 0.30 | 96 | 1011.4 | |
| 20260904094536 | 57 | 0.0 | 5.0 | 0.14 | 0.64 | 0.27 | 96 | 1011.6 | |
| 20260904093016 | 57 | 0.0 | 1.0 | 0.16 | 0.61 | 0.24 | 96 | 1011.6 | |
| 20260904091516 | 57 | 0.0 | 1.0 | 0.14 | 0.58 | 0.21 | 95 | 1011.7 | |
| 20260904090016 | 57 | 0.0 | 0.0 | 0.11 | 0.53 | 0.16 | 95 | 1011.7 | |
| 20260904084516 | 57 | 0.0 | 2.0 | 0.10 | 0.50 | 0.13 | 95 | 1011.8 | |
| 20260904083016 | 57 | 0.0 | 3.0 | 0.05 | 0.45 | 0.08 | 95 | 1011.9 | |
| 20260904081536 | 58 | 0.0 | 3.0 | 0.05 | 0.44 | 0.07 | 95 | 1012.0 | |
| 20260904080016 | 58 | 0.0 | 0.0 | 0.05 | 0.42 | 0.05 | 95 | 1012.0 | |
| 20260904074516 | 58 | 0.0 | 1.0 | 0.05 | 0.40 | 0.03 | 95 | 1012.1 | |
| 20260904073016 | 58 | 0.0 | 0.0 | 0.06 | 0.40 | 0.03 | 95 | 1012.1 | |
| 20260904071516 | 58 | 0.0 | 0.0 | 0.07 | 0.39 | 0.02 | 95 | 1012.1 | |
| 20260904070016 | 58 | 0.0 | 1.0 | 0.09 | 0.37 | 0.37 | 95 | 1012.1 | |
| 20260904064515 | 58 | 0.0 | 0.0 | 0.11 | 0.35 | 0.35 | 95 | 1012.1 | |
| 20260904063015 | 58 | 0.0 | 0.0 | 0.13 | 0.34 | 0.34 | 95 | 1012.1 | |
| 20260904061515 | 58 | 0.0 | 1.0 | 0.17 | 0.32 | 0.32 | 94 | 1012.0 | |
| 20260904060017 | 58 | 0.0 | 2.0 | 0.15 | 0.28 | 0.28 | 95 | 1012.0 | |
| 20260904054517 | 58 | 0.0 | 5.0 | 0.12 | 0.24 | 0.24 | 94 | 1012.0 | |
| 20260904053017 | 58 | 0.0 | 1.0 | 0.12 | 0.21 | 0.21 | 94 | 1011.9 | |
| 20260904051515 | 58 | 0.0 | 1.0 | 0.08 | 0.15 | 0.15 | 94 | 1012.0 | |
| 20260904050017 | 59 | 0.0 | 1.0 | 0.06 | 0.13 | 0.13 | 94 | 1012.1 | |
| 20260904044517 | 59 | 0.0 | 3.0 | 0.06 | 0.12 | 0.12 | 94 | 1012.1 | |
| 20260904043017 | 59 | 0.0 | 2.0 | 0.04 | 0.09 | 0.09 | 93 | 1011.9 | |
| 20260904041517 | 59 | 0.0 | 1.0 | 0.07 | 0.07 | 0.07 | 93 | 1012.0 | |
| 20260904040017 | 59 | 0.0 | 1.0 | 0.07 | 0.07 | 0.07 | 93 | 1011.7 | |
| 20260904034517 | 59 | 0.0 | 1.0 | 0.06 | 0.06 | 0.06 | 93 | 1011.8 | |
| 20260904033017 | 59 | 0.0 | 0.0 | 0.05 | 0.05 | 0.05 | 92 | 1011.8 | |
| 20260904031517 | 59 | 0.0 | 3.0 | 0.00 | 0.00 | 0.00 | 92 | 1011.7 | |
| 20260904030017 | 60 | 0.0 | 0.0 | 0.00 | 0.00 | 0.00 | 91 | 1011.5 | |
| 20260904024517 | 60 | 0.0 | 0.0 | 0.00 | 0.00 | 0.00 | 90 | 1011.7 | |
| 20260904023017 | 60 | 0.0 | 1.0 | 0.00 | 0.00 | 0.00 | 89 | 1011.9 | |
| 20260904021537 | 61 | 0.0 | 2.0 | 0.00 | 0.00 | 0.00 | 88 | 1011.9 | |
| 20260904020017 | 61 | 0.0 | 1.0 | 0.00 | 0.00 | 0.00 | 86 | 1011.9 | |
| 20260904014517 | 62 | 0.0 | 1.0 | 0.00 | 0.00 | 0.00 | 84 | 1012.1 | |
| 20260904013017 | 62 | 0.0 | 0.0 | 0.00 | 0.00 | 0.00 | 82 | 1012.2 | |
| 20260904011517 | 62 | 0.0 | 2.0 | 0.00 | 0.00 | 0.00 | 82 | 1012.3 | |
| 20260904010017 | 63 | 0.0 | 3.0 | 0.00 | 0.00 | 0.00 | 81 | 1012.4 | |
| 20260904004517 | 62 | 0.0 | 1.0 | 0.00 | 0.00 | 0.00 | 81 | 1012.5 | |
| 20260904003037 | 62 | 0.0 | 1.0 | 0.00 | 0.00 | 0.00 | 80 | 1012.6 | |
| 20260904001517 | 62 | 0.0 | 3.0 | 0.00 | 0.00 | 0.00 | 81 | 1012.7 | |
| 20260904000017 | 62 | 0.0 | 2.0 | 0.00 | 0.00 | 0.00 | 80 | 1012.7 | |
| 20260903234517 | 63 | 0.0 | 3.0 | 0.00 | 0.00 | 0.00 | 79 | 1012.8 | |
| 20260903233017 | 63 | 0.0 | 4.0 | 0.00 | 0.00 | 0.00 | 79 | 1012.8 | |
| 20260903231517 | 62 | 0.0 | 3.0 | 0.00 | 0.00 | 0.00 | 79 | 1012.8 | |
| 20260903230017 | 62 | 113 | 1.0 | 5.0 | 0.00 | 0.00 | 0.00 | 79 | 1013.0 |
| 20260903224517 | 63 | 113 | 1.0 | 4.0 | 0.00 | 0.00 | 0.00 | 79 | 1013.2 |
| 20260903223017 | 63 | 0.0 | 1.0 | 0.00 | 0.00 | 0.00 | 78 | 1013.3 | |
| 20260903221517 | 63 | 0.0 | 3.0 | 0.00 | 0.00 | 0.00 | 78 | 1013.6 | |
| 20260903220017 | 63 | 0.0 | 2.0 | 0.00 | 0.00 | 0.00 | 77 | 1013.8 | |
| 20260903214516 | 63 | 0.0 | 4.0 | 0.00 | 0.00 | 0.00 | 75 | 1013.9 | |
| 20260903213017 | 63 | 0.0 | 4.0 | 0.00 | 0.00 | 0.00 | 75 | 1013.9 | |
| 20260903211517 | 63 | 0.0 | 1.0 | 0.00 | 0.00 | 0.00 | 74 | 1014.0 | |
| 20260903210017 | 63 | 0.0 | 2.0 | 0.00 | 0.00 | 0.00 | 73 | 1014.0 | |
| 20260903204516 | 64 | 0.0 | 1.0 | 0.00 | 0.00 | 0.00 | 74 | 1014.1 | |
| 20260903203016 | 64 | 0.0 | 1.0 | 0.00 | 0.00 | 0.00 | 72 | 1014.0 | |
| 20260903201517 | 63 | 180 | 1.0 | 5.0 | 0.00 | 0.00 | 0.00 | 71 | 1014.1 |
| 20260903200056 | 63 | 135 | 1.0 | 4.0 | 0.00 | 0.00 | 0.00 | 69 | 1014.3 |
| 20260903194517 | 64 | 0.0 | 4.0 | 0.00 | 0.00 | 0.00 | 67 | 1014.4 | |
| 20260903193016 | 63 | 0.0 | 2.0 | 0.00 | 0.00 | 0.00 | 67 | 1014.5 | |
| 20260903191516 | 63 | 0.0 | 2.0 | 0.00 | 0.00 | 0.00 | 68 | 1014.5 | |
| 20260903190016 | 64 | 158 | 1.0 | 4.0 | 0.00 | 0.00 | 0.00 | 66 | 1014.9 |
| 20260903184516 | 64 | 158 | 1.0 | 6.0 | 0.00 | 0.00 | 0.00 | 66 | 1014.9 |
| 20260903183017 | 64 | 135 | 1.0 | 5.0 | 0.00 | 0.00 | 0.00 | 67 | 1015.0 |
| 20260903181537 | 63 | 113 | 1.0 | 5.0 | 0.00 | 0.00 | 0.00 | 68 | 1014.9 |
| 20260903180017 | 64 | 135 | 1.0 | 5.0 | 0.00 | 0.00 | 0.00 | 67 | 1015.1 |
| 20260903174516 | 63 | 113 | 1.0 | 6.0 | 0.00 | 0.00 | 0.00 | 67 | 1015.1 |
| 20260903173016 | 62 | 113 | 1.0 | 4.0 | 0.00 | 0.00 | 0.00 | 66 | 1014.9 |
| 20260903171517 | 61 | 158 | 1.0 | 4.0 | 0.00 | 0.00 | 0.00 | 65 | 1014.9 |
| 20260903170037 | 61 | 135 | 1.0 | 5.0 | 0.00 | 0.00 | 0.00 | 64 | 1015.0 |
| 20260903164516 | 61 | 113 | 1.0 | 5.0 | 0.00 | 0.00 | 0.00 | 65 | 1015.0 |
| 20260903163017 | 60 | 113 | 2.0 | 5.0 | 0.00 | 0.00 | 0.00 | 66 | 1015.0 |
| 20260903161516 | 60 | 113 | 1.0 | 3.0 | 0.00 | 0.00 | 0.00 | 67 | 1015.2 |
| 20260903160036 | 59 | 135 | 1.0 | 4.0 | 0.00 | 0.00 | 0.00 | 68 | 1015.1 |
| 20260903154517 | 59 | 113 | 1.0 | 4.0 | 0.00 | 0.00 | 0.00 | 70 | 1015.3 |
| 20260903153016 | 59 | 113 | 1.0 | 3.0 | 0.00 | 0.00 | 0.00 | 70 | 1015.4 |
| 20260903151516 | 59 | 113 | 1.0 | 5.0 | 0.00 | 0.00 | 0.00 | 70 | 1015.1 |
| 20260903150016 | 59 | 113 | 1.0 | 4.0 | 0.00 | 0.00 | 0.00 | 69 | 1015.2 |
| 20260903144516 | 58 | 113 | 1.0 | 3.0 | 0.00 | 0.00 | 0.00 | 68 | 1015.1 |